Simultaneous Nadir Overpasses (SNOs) Predictions

Prediction of SNOs between GOES-16 and METOP-C Satellite Orbit:

Table of predicted SNOs for the next 14.0 days since TLE Epoch: 11/23/2019
Index Date Time (GOES-16) GOES-16 Lat,Lon METOP-C Lat,Lon Distance(km) Time Diff (sec)
1 11/23/2019 14:48:17 0.02, -75.20 0.89, -78.97 430.86 80
2 11/24/2019 14:24:58 0.02, -75.20 -0.25, -73.98 138.74 80
3 11/26/2019 02:46:37 -0.02, -75.20 -0.76, -78.58 385.11 80
4 11/27/2019 02:23:18 -0.02, -75.21 0.37, -73.59 184.70 80
5 11/28/2019 14:44:49 0.01, -75.23 0.67, -78.15 332.91 80
6 11/29/2019 14:21:30 0.01, -75.24 -0.46, -73.16 237.18 80
7 12/01/2019 02:43:09 -0.01, -75.24 -0.56, -77.75 285.86 80
8 12/02/2019 02:19:49 -0.01, -75.26 0.58, -72.76 284.66 80
9 12/03/2019 14:41:21 0.00, -75.29 0.46, -77.32 231.60 80
10 12/04/2019 14:18:01 0.00, -75.31 -0.68, -72.33 339.41 80
11 12/06/2019 02:39:41 0.00, -75.33 -0.35, -76.93 182.26 80




NCC Satellite Simultaneous Nadir Overpasses (SNOs) Prediction Service
